Location: Six Mile Lake
(44.9000°N, 79.7170°W)
Time: 04:38:15
(UTC-04:00)

UKube-1 - Pass Details

Date: 02 July 2022
Orbit: 608 x 615 km, 98.4° (Epoch: 09 August)

Event Time Altitude Azimuth Distance (km) Brightness Sun altitude
Rises 00:36:03 0° 358° (N) 2,894 ? -21.2°
Reaches altitude 10° 00:38:49 10° 340° (NNW) 1,982 ? -21.3°
Maximum altitude 00:41:41 18° 298° (WNW) 1,531 ? -21.4°
Drops below altitude 10° 00:44:32 10° 256° (WSW) 1,970 ? -21.5°
Enters shadow 00:45:14 - 249° (WSW) 2,171 ? -21.5°
